Regional Weather Roundup
Issued by NWS Wakefield, VA

Home | Current Version | Previous Version | Graphics & Text | Print | Product List | Glossary On
Versions: 1 2 3 4 5 6 7 8 9 10 11 12 13 14 15 16 17 18 19 20 21 22 23 24 25 26 27 28 29 30 31 32 33 34 35 36 37 38 39 40 41 42 43 44 45 46 47 48 49 50
000
ASUS41 KAKQ 050415
RWRAKQ

REGIONAL WEATHER ROUNDUP
NATIONAL WEATHER SERVICE WAKEFIELD VA
1200 AM EDT THU MAY 05 2016

Note: "fair" indicates few or no clouds below 12,000 feet with no
significant weather and/or obstructions to visibility. * = Denotes
station may not report precipitation (e.g., rain,snow,etc.),
thunder or fog.

VAZ042-051-052>054-056-050500-
NORTHERN VIRGINIA

CITY           SKY/WX    TMP DP  RH WIND       PRES   REMARKS
WASH NATIONAL  CLOUDY    54  50  86 NE13      29.71S
DULLES         CLOUDY    53  49  86 E8        29.70R
FORT BELVOIR   CLOUDY    54  50  85 VRB2      29.69F
QUANTICO       CLOUDY    56  52  86 E9        29.70S
FREDERICKSBRG* CLOUDY    55  55 100 E6        29.68F
STAFFORD*      CLOUDY    54  51  91 NE5       29.73S
WARRENTON      CLOUDY    55  49  80 E6        29.69S
CULPEPER*      DRIZZLE   55  54  95 CALM      29.70S
MANASSAS*      CLOUDY    55  52  88 NE7       29.70S
LEESBURG*      CLOUDY    54  54 100 E5        29.71R
WINCHESTER     CLOUDY    54  52  94 SE6       29.69
FRONT ROYAL*   CLOUDY    52  52 100 E3        29.67S
LURAY*         CLOUDY    52  52 100 CALM      29.67S
$$

VAZ048-049-060>072-079>083-050500-
CENTRAL AND SOUTH CENTRAL VIRGINIA

CITY           SKY/WX    TMP DP  RH WIND       PRES   REMARKS
RICHMOND       DRIZZLE   55  54  96 E6        29.67S FOG
CHESTERFIELD*  CLOUDY    57  45  62 E6        29.67
PETERSBURG*    CLOUDY    59  59 100 E3        29.66F
HANOVER        CLOUDY    56  53  90 NE6       29.68S
TAPPAHANNOCK*  CLOUDY    56  55  96 E5        29.68S
QUINTON*       CLOUDY    55  55  97 CALM      29.67S
CHARLOTTSVILLE LGT RAIN  57  55  93 E5        29.67S
GORDONSVILLE*  CLOUDY    55  55  99 NE5       29.67S
ORANGE*        LGT RAIN  54  54 100 CALM      29.70S
LOUISA*        RAIN      57  55  94 E5        29.67R
BUMPASS*       CLOUDY    55  53  91 NE3       29.68R
FARMVILLE*     CLOUDY    60  56  89 NE7       29.64S
CREWE*         CLOUDY    57  57 100 NE3       29.64S
FORT PICKETT*  NOT AVBL
CHASE CITY*    CLOUDY    54  52  94 CALM      29.62F
CLARKSVILLE*   FAIR      54  54 100 CALM      29.61F
SOUTH HILL*    CLOUDY    58  56  96 CALM      29.68F
LAWRENCEVILLE* CLOUDY    59  58  97 NE3       29.64S
EMPORIA*       CLOUDY    57  55  94 NE6       29.66F
$$

VAZ088>098-050500-
SOUTHEAST VIRGINIA

CITY           SKY/WX    TMP DP  RH WIND       PRES   REMARKS
NORFOLK        CLOUDY    53  51  93 NE10      29.66F
VIRGINIA BEACH CLOUDY    56  51  84 NE9       29.64F FOG
NORFOLK NAVAL  CLOUDY    55  53  93 NE7       29.68F
WEST POINT*    CLOUDY    56  54  94 NE8       29.68S
SALUDA*        CLOUDY    55  54  97 E5        29.68R
NEWPORT NEWS   CLOUDY    55  54  96 E9        29.67S FOG
LANGLEY AFB    CLOUDY    55  54  94 E13       29.66F
FORT EUSTIS    CLOUDY    57  54  88 E8        29.64F
WILLIAMSBURG*  MOCLDY    57  57 100 SE6       29.67S
HR EXEC AP*    CLOUDY    55  52  88 E10       29.68F
FRANKLIN*      CLOUDY    56  54  91 NE9       29.65F
US460-WAKEFLD  CLOUDY    58  56  93 CALM      29.66S
$$

VAZ020-022-025-037-045-050500-
WEST CENTRAL AND SOUTHWEST VIRGINIA

CITY           SKY/WX    TMP DP  RH WIND       PRES   REMARKS
STAUNTON*      FAIR      54  51  92 N3        29.68S
WAYNESBORO*    MOCLDY    49  47  95 CALM      29.66S
HOT SPRINGS VA CLOUDY    45  44  96 NW12      29.67S
LYNCHBURG      FAIR      55  49  80 N8        29.65S
DANVILLE       FAIR      50  48  93 CALM      29.63F
SOUTH BOSTON*  FAIR      53  51  95 CALM      29.62F
MARTINSVILLE   FAIR      47  47  99 CALM      29.67S
ROANOKE        CLOUDY    57  42  57 NW5       29.67R
BLACKSBURG     FAIR      51  44  77 NW5       29.71S
DUBLIN*        CLOUDY    53  44  72 N6        29.70S
MARION*        RAIN      49  47  91 W6        29.72F
HILLSVILLE*    CLOUDY    51  42  70 NW8G17    29.67S
RICHLANDS*     RAIN      46  33  60 NW12G18   29.71S
WISE*          DRIZZLE   43  43 100 CALM      29.74S
ABINGDON*      DRIZZLE   49  44  85 NW6       29.72S
$$

MDZ021>025-VAZ099-100-050500-
SOUTHERN MARYLAND AND THE DELMARVA PENINSULA

CITY           SKY/WX    TMP DP  RH WIND       PRES   REMARKS
PATUXENT RIVER CLOUDY    53  49  86 NE9       29.69S
BAY BRIDGE APT NOT AVBL
LEONARDTOWN    CLOUDY    52  50  93 CALM      29.70F
DOVER          CLOUDY    49  49 100 NE9       29.71S
GEORGETOWN     CLOUDY    50  47  89 NE12      29.70F
EASTON         CLOUDY   N/A N/A N/A E8        29.74S
CAMBRIDGE      CLOUDY    50  46  87 NE6       29.69S
SALISBURY      CLOUDY    50  48  93 NE13      29.68F
OCEAN CITY     CLOUDY    50  47  89 NE15G23   29.69F
WALLOPS ISLAND CLOUDY    52  49  89 NE14      29.68S
ACCOMACK*      CLOUDY    52  32  46 NE12      29.68R
$$

NCZ012>017-030>032-050500-
NORTH CENTRAL AND EASTERN NORTH CAROLINA

CITY           SKY/WX    TMP DP  RH WIND       PRES   REMARKS
ROANOKE RAPIDS CLOUDY    59  59 100 E5        29.62F
RALEIGH        MOCLDY    59  52  77 CALM      29.63F
ELIZABETH CITY CLOUDY    57  54  89 NE10      29.64F
AHOSKIE*       CLOUDY    59  57  92 E6        29.63F
EDENTON*       CLOUDY    60  60 100 NE6       29.64S
CURRITUCK*     NOT AVBL
KILL DEVIL HLS PTCLDY    55  55  97 NE5       29.62F
MANTEO         MOCLDY    56  56  97 NE12      29.63S
CAPE HATTERAS  CLOUDY    60  58  92 NE12G18   29.61S
TARBORO*       CLOUDY    62  61  96 E5        29.62F
GOLDSBORO      CLOUDY    64  62  94 N3        29.58F
WASHINGTON     FOG       61  59  94 E10       29.62S VSB 3/4
GREENVILLE     MOCLDY    63  63 100 E6        29.64F
NEW BERN       CLOUDY    65  63  93 NE7       29.61F
WILMINGTON     MOCLDY    65  60  84 SE3       29.59F
$$

VAZ048-050500-
ELSEWHERE

CITY           SKY/WX    TMP DP  RH WIND       PRES   REMARKS
HARRISBURG PA  CLOUDY    51  47  86 E6        29.72S
BALTIMORE      DRIZZLE   51  47  86 E14       29.72R FOG
ANNAPOLIS      CLOUDY    52  48  86 E9        29.72R
ANDREWS AFB    CLOUDY    52  50  93 NE9       29.70S
PHILADELPHIA   CLOUDY    51  46  83 E9        29.73S
HENDERSON NC   CLEAR     55  55 100 CALM      29.62F
GREENSBORO     CLEAR     56  49  77 CALM      29.63F
ROCKY MOUNT    CLOUDY    62  59  90 CALM      29.61F
$$

VAZ100-050500-
MARINE

STATION/POSITION TIME  TEMP    WIND        PRES    WAVE   SWELL
                       AIR SEA DIR/SP/G            HT/PER HT/PER
                 (UTC) (F)     (DEG/KT/KT) (MB)    (FT/S) (FT/S)
BRANDYWINE LGT   0300                      1006.0R
CAPE MAY NJ      0300      58              1005.8R
LEWES DE         0300      56              1006.1R
15NM E FENWICK I 0350   49 51              1005.1S   6/ 6
OCEAN-CITY-INLET 0300      55              1004.8F
WACHAPREAGUE VA  0300      61              1004.3R
THOMAS POINT MD  0400   51 58   70/  7/  9 1007.7R
GOOSES REEF MD   0400   53 59   70/ 12/ 14 1006.7F   2/ 3
COVE POINT MD    0300                      1006.0R
SOLOMONS ISLAND  0300      60                N/A
BISHOPS HEAD MD  0300      61              1004.3F
PINEY POINT MD   0306           80/  5/  6   N/A
POTOMAC MD       0400   54 60   70/ 10/ 14 1004.2R   1/ 3
CAMBRIDGE MD     0300      62              1004.8R
LEWISETTA VA     0300      62              1004.7R
RAPPAHANNOCK LGT 0300                      1005.4R
STINGRAY PT      0400   56 62   90/ 10/ 12 1005.1S   2/ 3
YORK RVR RNG VA  0300                      1004.0R
YORKTOWN VA      0300      63              1004.4R
JAMESTOWN VA     0400   58 68  100/  6/ 10   N/A
DOMINION TERM VA 0300                      1004.8R
KIPTOPEKE VA     0300      62                N/A
CHES BAY BRIDGE  0300      59              1004.5R
CAPE HENRY VA    0306   52      50/ 12/ 15   N/A
CHESAPEAKE LGHT  0300   51      50/ 16/ 18 1004.9F
WILLOUBY STN VA  0300                      1005.5R
CAPE HENRY BUOY  0312      56                N/A     4/ 5
CAPE CHARLES BUO 0326      58                N/A     4/ 5   2/ 8
OFFSHORE WE BUOY 0321      56                N/A     4/ 6   2/ 7
64NM E OF VA BCH 0350   52 54   20/ 14/ 16 1003.0F   4/ 7   3/ 7
DUCK PIER NC     0300      60              1003.4F
44100 DUCK FRF   0324      59                N/A     3/ 7
44056 DUCK FRF   0311      59                N/A     3/ 5
OREGON INLET NC  0300      66              1003.0F
HATTERAS NC      0300      70              1002.1F
DIAMOND SHLS NC  0350   62 70   20/ 16/ 17 1002.1F   4/ 8   2/ 8
CAPE LOOKOUT NC  0400   65      30/ 14/ 16 1001.5F
$$



USA.gov is the U.S. government's official web portal to all federal, state and local government web resources and services.